GW1618 Weather Reports


time (UTC)temp
F
wind
direction
speed
knots
gust
knots
rain 1hr
in
rain 24hr
in
rain mn
in
humidity
%
barometer
mb
20260506103418 53 238 1.7 3.5 0.00 0.00 0.00 83 1017.6
20260506103159 53 223 1.7 4.3 0.00 0.00 0.00 83 1017.6
20260506102405 53 261 1.7 4.3 0.00 0.00 0.00 83 1017.6
20260506101906 53 260 2.6 5.2 0.00 0.00 0.00 83 1017.6
20260506101406 53 218 2.6 5.2 0.00 0.00 0.00 83 1017.6
20260506100904 53 263 2.6 4.3 0.00 0.00 0.00 82 1017.6
20260506100722 53 248 1.7 4.3 0.00 0.00 0.00 82 1017.5
20260506095402 53 231 2.6 4.3 0.00 0.00 0.00 81 1017.5
20260506094902 53 216 2.6 4.3 0.00 0.00 0.00 81 1017.3
20260506094400 53 258 2.6 4.3 0.00 0.00 0.00 81 1017.3
20260506093852 53 202 2.6 4.3 0.00 0.00 0.00 81 1017.3
20260506093643 53 257 2.6 4.3 0.00 0.00 0.00 81 1017.3
20260506093139 53 259 2.6 4.3 0.00 0.00 0.00 80 1017.3
20260506092642 53 242 2.6 4.3 0.00 0.00 0.00 80 1017.3
20260506091846 53 237 2.6 5.2 0.00 0.00 0.00 80 1017.2
20260506091344 53 263 2.6 5.2 0.00 0.00 0.00 80 1017.2
20260506091131 53 261 1.7 4.3 0.00 0.00 0.00 80 1017.2
20260506090628 53 201 2.6 5.2 0.00 0.00 0.00 80 1017.4
20260506085841 53 254 2.6 5.2 0.00 0.00 0.00 80 1017.4
20260506085340 53 260 1.7 3.5 0.00 0.00 0.00 80 1017.4
20260506084842 53 274 0.9 2.6 0.00 0.00 0.00 81 1017.1
20260506084339 53 300 0.9 2.6 0.00 0.00 0.00 81 1017.1
20260506084123 53 291 0.9 2.6 0.00 0.00 0.00 81 1017.1
20260506083341 53 234 0.9 2.6 0.00 0.00 0.00 82 1017.0
20260506082831 53 219 0.9 2.6 0.00 0.00 0.00 82 1017.0
20260506082330 53 262 0.9 1.7 0.00 0.00 0.00 83 1017.0
20260506081829 53 241 0.9 2.6 0.00 0.00 0.00 84 1017.0
20260506081331 53 243 0.9 2.6 0.00 0.00 0.00 84 1017.0
20260506080830 53 273 0.9 2.6 0.00 0.00 0.00 83 1017.0
20260506080331 53 201 0.9 2.6 0.00 0.00 0.00 84 1016.8
20260506073304 53 290 0.0 0.9 0.00 0.00 0.00 85 1016.5
20260506072801 53 290 0.0 0.9 0.00 0.00 0.00 84 1016.5
20260506072306 53 290 0.0 0.9 0.00 0.00 0.00 84 1016.5
20260506071809 53 290 0.0 1.7 0.00 0.00 0.00 84 1016.5
20260506071304 53 290 0.9 1.7 0.00 0.00 0.00 84 1016.5
20260506071041 53 293 0.9 1.7 0.00 0.00 0.00 82 1016.5
20260506070303 53 285 0.9 1.7 0.00 0.00 0.00 82 1016.2
20260506062233 54 350 0.9 1.7 0.00 0.00 0.00 80 1016.0
20260506061732 54 350 0.9 1.7 0.00 0.00 0.00 80 1016.0
20260506061228 54 328 0.0 1.7 0.00 0.00 0.00 80 1016.0
20260506060737 55 273 0.0 1.7 0.00 0.00 0.00 79 1016.0
20260506051203 56 340 1.7 2.6 0.00 0.00 0.00 77 1015.6
20260506050936 56 315 0.9 2.6 0.00 0.00 0.00 76 1015.6
20260506050155 57 270 0.9 1.7 0.00 0.00 0.00 76 1015.5
20260506044642 57 39 0.9 1.7 0.00 0.00 0.00 74 1015.5
20260506044143 57 310 0.9 2.6 0.00 0.00 0.00 74 1015.5
20260506043639 57 9 0.9 2.6 0.00 0.00 0.00 73 1015.5
20260506043137 58 327 0.9 2.6 0.00 0.00 0.00 73 1015.5
20260506042913 58 222 1.7 6.1 0.00 0.00 0.00 73 1015.5
20260506042136 58 242 2.6 6.1 0.00 0.00 0.00 73 1015.5
20260506041633 58 279 2.6 4.3 0.00 0.00 0.00 72 1015.4
20260506041133 58 300 3.5 5.2 0.00 0.00 0.00 72 1015.4
20260506040635 58 299 3.5 6.1 0.00 0.00 0.00 72 1015.4
20260506040135 58 289 3.5 6.1 0.00 0.00 0.00 72 1015.0
20260506035632 59 303 3.5 5.2 0.00 0.00 0.00 72 1015.0
20260506035131 59 296 4.3 7.8 0.00 0.00 0.00 71 1015.0
20260506034632 59 314 3.5 7.8 0.00 0.00 0.00 71 1014.9
20260506034133 59 296 2.6 6.1 0.00 0.00 0.00 70 1014.9
20260506033634 60 273 2.6 3.5 0.00 0.00 0.00 70 1014.9
20260506033129 60 304 2.6 6.1 0.00 0.00 0.00 70 1014.7
20260506032630 60 321 3.5 6.1 0.00 0.00 0.00 69 1014.7
20260506032123 60 297 4.3 6.1 0.00 0.00 0.00 69 1014.7
20260506031615 61 318 4.3 6.1 0.00 0.00 0.00 68 1014.5
20260506031106 61 300 4.3 6.1 0.00 0.00 0.00 68 1014.5
20260506030559 61 306 3.5 7.0 0.00 0.00 0.00 67 1014.5
20260506030058 62 310 3.5 6.1 0.00 0.00 0.00 66 1014.5
20260506025548 62 304 4.3 7.0 0.00 0.00 0.00 65 1014.5
20260506025038 62 263 4.3 7.8 0.00 0.00 0.00 65 1014.5
20260506024534 62 273 4.3 7.8 0.00 0.00 0.00 64 1014.5
20260506024026 63 277 3.5 6.1 0.00 0.00 0.00 63 1014.5
20260506023521 63 298 4.3 6.1 0.00 0.00 0.00 64 1014.5
20260506023303 63 308 4.3 8.7 0.00 0.00 0.00 64 1014.5
20260506022515 63 302 4.3 8.7 0.00 0.00 0.00 63 1014.5
20260506022017 63 281 5.2 7.8 0.00 0.00 0.00 64 1014.4
20260506021515 63 304 6.1 8.7 0.00 0.00 0.00 64 1014.4
20260506021014 63 303 7.0 10.4 0.00 0.00 0.00 64 1014.4
20260506020513 64 310 6.1 10.4 0.00 0.00 0.00 63 1014.4
20260506020010 64 322 4.3 7.8 0.00 0.00 0.00 62 1014.4
20260506015753 64 302 3.5 8.7 0.00 0.00 0.00 62 1014.4
20260506015008 64 329 5.2 8.7 0.00 0.00 0.00 63 1014.4
20260506014751 64 329 4.3 8.7 0.00 0.00 0.00 62 1014.4
20260506014250 65 285 3.5 7.0 0.00 0.00 0.00 61 1014.4
20260506013757 65 328 2.6 4.3 0.00 0.00 0.00 61 1014.4
20260506013006 65 239 1.7 3.5 0.00 0.00 0.00 61 1014.4
20260506012753 65 206 1.7 3.5 0.00 0.00 0.00 60 1014.4
20260506012002 65 208 1.7 3.5 0.00 0.00 0.00 61 1014.4
20260506011455 65 203 1.7 4.3 0.00 0.00 0.00 62 1014.4
20260506011006 65 243 2.6 5.2 0.00 0.00 0.00 63 1014.4
20260506005944 64 140 3.5 5.2 0.00 0.00 0.00 63 1014.4
20260506005444 64 211 3.5 5.2 0.00 0.00 0.00 63 1014.4
20260506004942 64 161 3.5 6.1 0.00 0.00 0.00 64 1014.5
20260506004446 64 207 3.5 6.1 0.00 0.00 0.00 64 1014.5
20260506003942 64 254 3.5 6.1 0.00 0.00 0.00 64 1014.5
20260506003441 64 248 3.5 6.1 0.00 0.00 0.00 64 1014.5
20260506002942 64 218 3.5 9.6 0.00 0.00 0.00 64 1014.5
20260506002440 63 203 3.5 9.6 0.00 0.00 0.00 64 1014.5
20260506001939 64 204 2.6 7.8 0.00 0.00 0.00 64 1014.6
20260506001442 64 184 3.5 7.8 0.00 0.00 0.00 64 1014.6
20260506000933 63 235 4.3 8.7 0.00 0.00 0.00 64 1014.6
20260506000432 63 198 3.5 8.7 0.00 0.00 0.00 65 1014.8
20260505235932 63 190 3.5 6.1 0.00 0.00 0.00 64 1014.8
20260505235431 63 203 2.6 6.1 0.00 0.00 0.00 64 1014.8
20260505234929 63 194 2.6 6.1 0.00 0.00 0.00 65 1015.0
20260505234434 62 203 3.5 6.1 0.00 0.00 0.00 65 1015.0
20260505233932 62 194 3.5 6.1 0.00 0.00 0.00 66 1015.0
20260505233432 62 188 4.3 8.7 0.00 0.00 0.00 67 1015.1
20260505232930 61 340 4.3 8.7 0.00 0.00 0.00 68 1015.1
20260505232428 61 342 4.3 7.0 0.00 0.00 0.00 68 1015.1
20260505231930 61 331 4.3 7.8 0.00 0.00 0.00 68 1015.4
20260505231429 61 305 5.2 7.8 0.00 0.00 0.00 69 1015.4
20260505230930 61 270 4.3 7.8 0.00 0.00 0.00 68 1015.4
20260505230429 61 295 4.3 7.8 0.00 0.00 0.00 69 1015.5
20260505225929 61 313 4.3 7.8 0.00 0.00 0.00 68 1015.5
20260505225429 61 285 4.3 8.7 0.00 0.00 0.00 68 1015.5
20260505225227 61 275 3.5 8.7 0.00 0.00 0.00 69 1015.5
20260505224432 61 311 3.5 6.1 0.00 0.00 0.00 70 1015.5
20260505223932 61 295 3.5 6.1 0.00 0.00 0.00 69 1015.5
20260505223431 61 314 3.5 7.0 0.00 0.00 0.00 70 1015.5
20260505222929 60 255 4.3 8.7 0.00 0.00 0.00 70 1015.5
20260505222717 60 328 5.2 8.7 0.00 0.00 0.00 71 1015.5
20260505221929 60 326 5.2 8.7 0.00 0.00 0.00 71 1015.6
20260505221430 60 283 6.1 9.6 0.00 0.00 0.00 71 1015.6
20260505220929 61 9 4.3 9.6 0.00 0.00 0.00 69 1015.6
20260505220430 61 291 1.7 4.3 0.00 0.00 0.00 68 1015.7
20260505215929 61 200 2.6 5.2 0.00 0.00 0.00 67 1015.7
20260505215427 61 240 2.6 5.2 0.00 0.00 0.00 68 1015.7
20260505214918 61 268 2.6 5.2 0.00 0.00 0.00 68 1015.8
20260505214420 61 323 2.6 5.2 0.00 0.00 0.00 68 1015.8
20260505213920 61 231 1.7 3.5 0.00 0.00 0.00 68 1015.8
20260505213425 61 231 1.7 3.5 0.00 0.00 0.00 69 1015.9
20260505212926 60 302 2.6 3.5 0.00 0.00 0.00 69 1015.9
20260505212654 60 306 2.6 5.2 0.00 0.00 0.00 69 1015.9
20260505211917 61 287 1.7 5.2 0.00 0.00 0.00 68 1015.9
20260505211416 61 245 1.7 4.3 0.00 0.00 0.00 68 1015.9
20260505210939 61 306 2.6 6.1 0.00 0.00 0.00 68 1015.9
20260505205903 60 205 2.6 5.2 0.00 0.00 0.00 68 1016.0
20260505205401 60 220 2.6 3.5 0.00 0.00 0.00 68 1016.0
20260505205147 60 173 1.7 3.5 0.00 0.00 0.00 68 1016.0
20260505204401 60 192 1.7 3.5 0.00 0.00 0.00 68 1016.0
20260505203901 60 204 1.7 5.2 0.00 0.00 0.00 68 1016.0
20260505203649 60 298 1.7 5.2 0.00 0.00 0.00 68 1016.0
20260505202901 60 229 1.7 4.3 0.00 0.00 0.00 68 1016.0
20260505202405 60 202 2.6 5.2 0.00 0.00 0.00 68 1016.0
20260505202144 60 281 2.6 5.2 0.00 0.00 0.00 69 1015.9
20260505201404 60 277 2.6 5.2 0.00 0.00 0.00 69 1015.9
20260505200904 59 267 1.7 6.1 0.00 0.00 0.00 70 1015.9
20260505200404 59 232 2.6 6.1 0.00 0.00 0.00 69 1016.0
20260505200148 59 223 3.5 6.1 0.00 0.00 0.00 69 1016.0
20260505195405 59 200 2.6 6.1 0.00 0.00 0.00 70 1016.0
20260505195151 59 232 2.6 6.1 0.00 0.00 0.00 69 1016.0
20260505194407 59 200 1.7 5.2 0.00 0.00 0.00 70 1016.0
20260505193905 59 225 1.7 4.3 0.00 0.00 0.00 72 1016.0
20260505193357 59 335 2.6 5.2 0.00 0.00 0.00 72 1016.0
20260505192844 59 295 2.6 4.3 0.00 0.00 0.00 71 1016.0
20260505192339 58 229 3.5 6.1 0.00 0.00 0.00 72 1016.0
20260505191841 58 204 4.3 8.7 0.00 0.00 0.00 71 1015.9
20260505191341 58 229 4.3 8.7 0.00 0.00 0.00 71 1015.9
20260505190900 58 271 2.6 7.8 0.00 0.00 0.00 70 1015.9
20260505185836 58 223 3.5 5.2 0.00 0.00 0.00 71 1016.0
20260505185334 58 326 3.5 6.1 0.00 0.00 0.00 71 1016.0
20260505184835 58 282 3.5 6.1 0.00 0.00 0.00 71 1016.0
20260505184334 58 253 2.6 5.2 0.00 0.00 0.00 72 1016.0
20260505183834 58 264 3.5 8.7 0.00 0.00 0.00 72 1016.0
20260505183332 58 228 3.5 8.7 0.00 0.00 0.00 72 1016.0
20260505182852 58 304 2.6 6.1 0.00 0.00 0.00 72 1016.0
20260505182111 58 230 2.6 6.1 0.00 0.00 0.00 72 1015.9
20260505181604 57 208 4.3 9.6 0.00 0.00 0.00 72 1015.9
20260505180832 57 265 3.5 9.6 0.00 0.00 0.00 72 1015.9
20260505180319 58 291 2.6 5.2 0.00 0.00 0.00 72 1015.9
20260505175816 58 242 2.6 5.2 0.00 0.00 0.00 72 1015.9
20260505175311 57 231 2.6 6.1 0.00 0.00 0.00 73 1015.9
20260505174804 57 204 3.5 6.1 0.00 0.00 0.00 73 1015.8
20260505174257 57 282 2.6 6.1 0.00 0.00 0.00 73 1015.8
20260505173751 57 209 2.6 6.1 0.00 0.00 0.00 73 1015.8
20260505173245 57 285 3.5 7.0 0.00 0.00 0.00 73 1015.6
20260505172732 57 252 2.6 7.0 0.00 0.00 0.00 73 1015.6
20260505172231 57 268 2.6 5.2 0.00 0.00 0.00 73 1015.6
20260505171722 57 211 2.6 5.2 0.00 0.00 0.00 73 1015.5
20260505171221 57 189 2.6 6.1 0.00 0.00 0.00 73 1015.5
20260505170954 57 234 2.6 6.1 0.00 0.00 0.00 73 1015.5
20260505170213 57 241 3.5 8.7 0.00 0.00 0.00 74 1015.5
20260505165738 57 154 2.6 8.7 0.00 0.00 0.00 74 1015.5
20260505164714 57 247 2.6 7.8 0.00 0.00 0.00 74 1015.5
20260505164212 57 270 1.7 5.2 0.00 0.00 0.00 74 1015.5
20260505163709 57 283 2.6 7.8 0.00 0.00 0.00 74 1015.5
20260505163210 56 274 3.5 7.8 0.00 0.00 0.00 75 1015.4
20260505162707 56 242 2.6 7.0 0.00 0.00 0.00 73 1015.4
20260505162206 56 249 2.6 8.7 0.00 0.00 0.00 75 1015.4
20260505161704 56 211 3.5 8.7 0.00 0.00 0.00 76 1015.2
20260505161201 56 198 2.6 8.7 0.00 0.00 0.00 76 1015.2
20260505160701 56 220 2.6 5.2 0.00 0.00 0.00 76 1015.2
20260505160201 56 223 2.6 5.2 0.00 0.00 0.00 77 1015.2
20260505152701 56 196 3.5 7.8 0.00 0.00 0.00 78 1015.0
20260505152202 56 249 2.6 7.8 0.00 0.00 0.00 78 1015.0
20260505151703 56 197 3.5 6.1 0.00 0.00 0.00 79 1015.0
20260505151201 56 191 3.5 6.1 0.00 0.00 0.00 79 1015.0
20260505150701 56 185 2.6 7.0 0.00 0.00 0.00 79 1015.0
20260505150201 56 171 4.3 8.7 0.00 0.00 0.00 78 1014.8
20260505140203 56 194 1.7 3.5 0.00 0.00 0.00 80 1014.4
20260505130139 55 257 0.9 1.7 0.00 0.00 0.00 80 1013.9
20260505124630 55 254 1.7 3.5 0.00 0.00 0.00 80 1013.9
20260505124129 55 258 1.7 3.5 0.00 0.00 0.00 80 1013.9
20260505123628 55 259 0.9 2.6 0.00 0.00 0.00 80 1013.9
20260505123134 55 266 1.7 3.5 0.00 0.00 0.00 80 1013.7
20260505122618 55 264 1.7 3.5 0.00 0.00 0.00 80 1013.7
20260505122109 55 231 1.7 3.5 0.00 0.00 0.00 80 1013.6
20260505121603 55 258 1.7 2.6 0.00 0.00 0.00 80 1013.6
20260505121347 55 252 1.7 3.5 0.00 0.00 0.00 80 1013.6
20260505120557 55 243 1.7 4.3 0.00 0.00 0.00 80 1013.4
20260505120056 55 226 1.7 4.3 0.00 0.00 0.00 80 1013.4
20260505115551 55 226 1.7 3.5 0.00 0.00 0.00 80 1013.4
20260505115045 55 211 1.7 3.5 0.00 0.00 0.00 80 1013.4
20260505114545 55 269 1.7 3.5 0.00 0.00 0.00 80 1013.4
20260505114044 55 223 0.9 3.5 0.00 0.00 0.00 80 1013.4
20260505113541 55 220 0.9 2.6 0.00 0.00 0.00 81 1013.4
20260505113044 55 252 1.7 2.6 0.00 0.00 0.00 81 1013.4
20260505112557 55 240 0.9 2.6 0.00 0.00 0.00 81 1013.4
20260505111531 55 221 0.9 1.7 0.00 0.00 0.00 81 1013.4
20260505111315 55 221 1.7 2.6 0.00 0.00 0.00 81 1013.4
20260505110820 55 254 1.7 2.6 0.00 0.00 0.00 80 1013.3